Location: Hains Lake
(37.8540°N, 99.8578°W)
Time: 01:52:13
(UTC+00:00)

Altair - Visible Passes

Search period start: 21 April 2021 00:00
Search period end: 01 May 2021 00:00
Orbit: 1501 x 1683 km, 47.2° (Epoch: 20 April)

Date Brightness Start Highest point End Pass type
(mag) Time Alt. Az. Time Alt. Az. Time Alt. Az.
21 Apr 8.4 10:24:23 12° SSW 10:33:09 44° SE 10:42:10 10° ENE visible
22 Apr 8.4 10:00:49 17° SSW 10:08:02 41° SE 10:16:54 10° ENE visible
23 Apr 8.5 09:37:13 21° S 09:42:54 37° SE 09:51:36 10° ENE visible
24 Apr 8.5 09:13:30 25° S 09:17:47 34° SE 09:26:16 10° ENE visible
24 Apr 7.7 11:11:51 10° WSW 11:21:57 87° NNW 11:31:42 10° ENE visible
25 Apr 8.6 08:49:45 27° SSE 08:52:41 31° SE 09:00:54 10° ENE visible
25 Apr 7.7 10:47:46 14° SW 10:56:44 89° SSE 11:06:31 10° ENE visible
26 Apr 8.6 08:25:56 27° SE 08:27:35 28° SE 08:35:30 10° ENE visible
26 Apr 7.6 10:23:57 20° SW 10:31:31 84° SE 10:41:19 10° ENE visible
27 Apr 8.7 08:02:03 25° SE 08:02:28 25° SE 08:10:05 10° ENE visible
27 Apr 7.6 10:00:03 27° SW 10:06:19 79° SE 10:16:09 10° ENE visible
28 Apr 8.9 07:38:07 23° ESE 07:38:07 23° ESE 07:44:35 10° E visible
28 Apr 7.6 09:36:07 35° SW 09:41:07 75° SE 09:50:56 10° ENE visible
29 Apr 9.0 07:14:07 20° ESE 07:14:07 20° ESE 07:19:01 10° E visible
29 Apr 7.6 09:12:07 43° SSW 09:15:56 70° SE 09:25:44 10° ENE visible
29 Apr 8.0 11:11:16 10° W 11:21:09 58° NNW 11:30:43 10° ENE visible
30 Apr 9.2 06:50:05 16° ESE 06:50:05 16° ESE 06:53:22 10° E visible
30 Apr 7.6 08:48:05 50° SSW 08:50:45 65° SE 09:00:31 10° ENE visible
30 Apr 8.0 10:46:04 11° W 10:55:52 61° NNW 11:05:30 10° ENE visible
